Location: Rheinau
(48.8717°N, 8.1913°E)
Time: 09:18:44
(UTC+00:00)

Daily predictions for brighter satellites

Satellite Brightness Start Highest point End
(mag) Time Altitude Azimuth Time Altitude Azimuth Time Altitude Azimuth
Cosmos 1814 Rocket 4.5 17:03:57 10° S 17:08:54 42° ESE 17:13:49 10° NE
SAR-Lupe-4 3.9 17:06:14 10° SE 17:09:38 44° ENE 17:13:03 10° N
ATLAS 3B R/B 4.1 17:02:33 10° NW 17:10:00 50° WSW 17:17:02 10° SSE
NOSS 7 (A) 4.5 17:08:37 10° NW 17:11:30 82° NE 17:14:36 10° SE
Cosmos 1125 Rocket 4.2 17:08:07 10° N 17:12:43 31° NE 17:17:18 10° ESE
IRS-1C 4.2 17:08:01 10° SSE 17:13:21 89° WSW 17:18:43 10° NNW
YAOGAN 1 2.8 17:16:42 10° SE 17:20:46 45° ENE 17:24:51 10° N
Cosmos 2123 Rocket 4.0 17:15:16 10° S 17:21:33 75° E 17:27:52 10° NNE
Okean 2 Rocket 3.6 17:18:33 10° N 17:22:40 37° ENE 17:26:43 10° SE
Cosmos 1900 4.4 17:17:40 10° SSW 17:22:46 87° SE 17:27:51 10° NE
NOSS 3-3 (C) 4.5 17:18:37 10° S 17:23:08 31° ESE 17:28:21 10° NE
Spot 4 Rocket 4.3 17:21:11 10° SE 17:26:02 47° ENE 17:30:55 10° N
Okean 1 Rocket 3.6 17:22:05 10° N 17:26:09 35° ENE 17:30:09 10° SE
COSMOS 2428 2.7 17:22:33 10° NNW 17:28:16 65° ENE 17:33:57 10° SE
Cosmos 1980 4.3 17:26:38 10° NNW 17:31:52 36° NE 17:37:03 10° ESE
Sich 1 Rocket 4.1 17:27:57 10° N 17:32:14 38° ENE 17:36:29 10° SE
ARIANE 5 R/B 3.2 17:27:34 10° S 17:32:38 60° WSW 17:37:40 10° NNW
Cosmos 158 Rocket 3.8 17:32:03 10° S 17:36:52 65° ESE 17:41:41 10° NNE
Cosmos 2237 Rocket 2.8 17:32:14 10° NNW 17:37:30 37° NE 17:42:44 10° ESE
Aureole 3 Rocket 3.5 17:33:43 10° N 17:37:36 30° ENE 17:40:42 10° SE
ATLAS 5 CENTAUR R/B 2.4 17:34:50 10° NW 17:39:03 58° SW 17:44:16 10° SSE
Cosmos 192 4.3 17:34:26 10° NNW 17:39:20 70° ENE 17:44:12 10° SSE
SeaSat 1 3.2 17:34:52 10° SSE 17:39:40 56° WSW 17:44:30 10° NW
Cosmos 1378 Rocket 3.4 17:35:45 10° S 17:40:04 82° E 17:44:23 10° NNE
USA 234 4.4 17:34:36 10° SSE 17:40:49 45° SW 17:47:04 10° WNW
Resurs 01 Rocket 2.1 17:37:07 10° SE 17:41:07 36° ENE 17:45:10 10° N
SKYMED 2 3.5 17:38:47 10° NNE 17:43:10 80° ESE 17:47:30 10° S
GP-B 3.3 17:39:39 10° S 17:44:00 74° W 17:48:24 10° N
Cosmos 2219 Rocket 3.9 17:42:04 10° NW 17:47:09 36° WSW 17:52:11 10° S
COSMO-SKYMED 1 2.6 17:43:25 10° NNE 17:47:28 51° E 17:51:28 10° S
Cosmos 2228 4.3 17:45:52 10° NNE 17:48:45 18° ENE 17:49:16 18° ENE
Cosmos 2292 Rocket 3.7 17:46:49 10° SSW 17:49:35 45° WNW 17:52:31 10° N
PSLV R/B 3.4 17:46:52 10° SSE 17:50:55 59° ENE 17:54:58 10° N
NOSS 3-3 (A) 3.8 17:46:43 10° SSW 17:51:44 57° ESE 17:57:36 11° NE
Cosmos 2322 3.9 17:46:47 10° NNW 17:52:31 79° WSW 17:58:14 10° SSE
USA 306 1.1 17:51:31 10° WNW 17:54:24 88° NNE 17:55:03 39° ESE
Cosmos 2016 Rocket 4.3 17:48:23 10° NNW 17:54:35 71° W 18:00:50 10° S
Resurs 1-3 3.7 17:50:21 10° S 17:54:39 79° WSW 17:58:58 10° NNW
Cosmos 1025 Rocket 2.9 17:54:07 10° S 17:58:23 70° E 18:02:42 10° NNE
SJ-7 4.0 17:55:01 10° SSE 17:58:42 82° ENE 18:02:24 10° NNW
Cosmos 2285 Rocket 4.0 17:53:04 10° NNW 17:59:28 64° ENE 18:05:49 10° SE
SL-16 R/B 3.5 17:56:23 10° N 18:00:40 21° NE 18:02:27 19° ENE
Cosmos 2227 Rocket 3.5 18:00:20 10° SE 18:03:35 18° ESE 18:03:35 18° ESE
SJ-6B 2.8 18:05:12 14° SE 18:07:53 40° ENE 18:11:09 10° N
NOSS 3-4 (A) 3.9 18:03:16 10° NW 18:09:40 54° NE 18:15:10 19° ESE
SPOT 5 3.8 18:08:21 24° E 18:09:52 28° ENE 18:14:07 10° N
NOSS 3-4 (C) 3.9 18:03:32 10° NW 18:09:56 54° NE 18:15:23 19° ESE
Cosmos 2233 Rocket 4.3 18:04:18 10° NNW 18:10:33 72° W 18:16:49 10° S
CZ-2D R/B 3.9 18:08:43 10° S 18:12:33 59° WSW 18:16:29 10° NNW
Cosmos 1674 Rocket 4.0 18:10:16 10° SSW 18:14:37 64° WNW 18:19:01 10° N
Cosmos 1315 Rocket 4.3 18:13:00 10° NNW 18:16:30 37° W 18:20:00 10° SSW
Cosmos 1513 Rocket 4.5 18:12:16 10° N 18:18:28 61° ENE 18:24:44 10° SSE
Cosmos 1867 4.3 18:17:35 10° WSW 18:22:53 51° NW 18:27:56 11° NNE
Cosmos 2061 Rocket 4.5 18:19:23 10° NNW 18:25:43 65° W 18:31:57 10° S
ATLAS 2AS CENTAUR R/B 4.2 18:20:03 10° WNW 18:25:50 28° NNW 18:31:15 11° NE
CZ-4 R/B 3.2 18:28:09 15° NNE 18:28:09 15° NNE 18:29:02 10° N
CZ-4B R/B 4.3 18:26:46 24° NE 18:26:46 24° NE 18:30:33 10° N
Helios 1A Rocket 4.2 18:28:45 19° SSE 18:28:45 19° SSE 18:29:49 10° S
Lacrosse 5 rocket 2.1 18:23:45 10° W 18:27:02 36° NNW 18:28:21 27° NNE
Atlas Centaur 2 4.5 18:23:23 10° SSW 18:27:19 15° S 18:30:57 10° SE
Meteor 1-31 Rocket 4.2 18:32:59 21° NNE 18:32:59 21° NNE 18:34:25 10° N
CZ-4C R/B 2.0 18:28:03 10° SW 18:32:20 68° NW 18:36:09 19° NE
IRAS Rocket 4.2 18:28:54 10° SSE 18:34:30 89° ENE 18:40:10 10° NNW
CARTOSAT-1 4.3 18:30:34 10° S 18:34:39 52° W 18:38:47 10° NNW
CRYOSAT 2 4.3 18:32:49 10° N 18:37:45 87° E 18:42:37 10° S
USA 267 3.9 18:41:48 23° NE 18:45:35 47° N 18:51:47 10° W
Cosmos 1464 Rocket 3.9 18:39:52 10° N 18:46:15 69° ENE 18:52:32 10° SSE
CSL-04 Debris 4.2 18:44:38 36° SE 18:46:37 56° ENE 18:51:55 10° N
ERS-1 Rocket 4.2 18:48:48 25° NNE 18:48:48 25° NNE 18:51:30 10° N
Cosmos 2297 Rocket 2.1 18:42:48 10° SSW 18:48:28 85° ESE 18:52:37 19° NNE
Cosmos 1570 Rocket 3.9 18:44:11 10° SSW 18:49:27 77° ESE 18:52:48 23° NNE
CSL-04 Rocket 3.5 18:47:26 35° SE 18:49:32 62° ENE 18:54:45 10° N
Cosmos 2344 3.9 18:43:41 10° S 18:50:46 36° ESE 18:51:12 36° ESE
BREEZE-M DEB (TANK) 4.3 18:46:53 10° WNW 18:50:51 66° SSW 18:56:52 26° SE
Cosmos 1455 Rocket 3.3 18:47:33 10° NNW 18:51:49 65° W 18:56:04 10° S
Cosmos 1975 Rocket 3.8 18:47:55 10° S 18:50:38 36° SSE 18:50:38 36° SSE
DNEPR-1 R/B 4.0 18:48:50 10° NW 18:53:33 59° NE 18:54:12 55° E
PAYLOAD B 4.2 19:05:27 58° ENE 19:05:30 58° ENE 19:11:01 10° N
Cosmos 2208 Rocket 3.8 19:01:26 10° SSW 19:06:39 77° ESE 19:07:29 62° NE
Terra 3.6 19:11:53 19° N 19:11:53 19° N 19:13:24 10° N
NOSS 3-3 (C) 4.3 19:08:18 10° WSW 19:13:35 56° NW 19:16:44 28° NNE
Resurs 01 Rocket 3.7 19:13:49 10° SSW 19:17:33 27° W 19:21:19 10° NW
Cosmos 2237 Rocket 3.2 19:16:16 10° NW 19:21:39 45° WSW 19:25:52 16° S
Cosmos 44 Rocket 3.9 19:17:50 10° SSW 19:21:20 47° SSW 19:21:20 47° SSW
Cosmos 773 Rocket 4.1 19:18:45 10° SSW 19:24:00 74° WNW 19:25:06 55° N
Cosmos 2228 3.8 19:21:59 10° NNW 19:25:37 47° WNW 19:25:37 47° WNW
Orbus 7S? 4.1 19:21:54 10° NW 19:28:58 64° WSW 19:28:58 64° WSW
Cosmos 2150 Rocket 4.4 19:28:28 10° NNW 19:33:32 57° WSW 19:33:58 55° SW
Cosmos 2298 Rocket 4.4 19:29:04 10° NNW 19:34:17 61° WSW 19:34:43 58° SW
SL-16 R/B 2.6 19:39:53 10° NNW 19:44:20 57° NNW 19:44:20 57° NNW
Cosmos 2227 Rocket 3.0 19:41:46 10° SSW 19:45:30 43° SW 19:45:30 43° SW
SPOT 5 3.9 19:47:22 43° WSW 19:47:34 44° W 19:52:22 10° NNW
CZ-4 R/B 4.4 20:03:09 10° NW 20:03:09 10° NW 20:03:11 10° NW
Lacrosse 5 rocket 4.4 20:01:44 10° NW 20:01:47 10° NW 20:01:47 10° NW
CZ-4B R/B 4.4 20:08:36 36° NW 20:08:36 36° NW 20:11:49 10° NNW
BREEZE-M DEB (TANK) 4.1 19:57:18 10° W 20:10:46 65° SW 20:10:46 65° SW
ATLAS 2AS CENTAUR R/B 4.2 20:13:34 10° NW 20:18:40 24° N 20:18:40 24° N
CZ-4C R/B 4.0 20:17:40 10° WNW 20:21:07 24° NNW 20:21:07 24° NNW
USA 267 4.1 20:29:08 42° NNW 20:29:08 42° NNW 20:34:07 10° WNW
Cosmos 2297 Rocket 4.2 20:28:49 10° W 20:33:14 23° NW 20:34:29 21° NNW
